Weather in But-Kazmalyar

Russia / Republic of Dagestan     41°42′12″N   48°23′56″E
temp.,
°C
wind,
m/s
gust,
m/s
humid.,
%
clouds,
%
prec.,
mm/h
press.,
hPa
HPBL,
m
24 september, fri
fri2400:00+17nw248491 0.0 1007175
03:00+17wnw248387 0.1 1007151
06:00+18w1282100 0.1 100668
09:00+19n458399 0.3 1007658
12:00+18n7986100 0.5 1009811
15:00+17nnw71077100 0.9 1011939
18:00+16nnw71175100 0.2 1013791
21:00+15nnw5879100 0.3 1014625
25 september, sat
sat2500:00+13sw2493100 3.0 1015152
03:00+14wnw018895 5.7 101412
06:00+14nw1187100 0.3 101447
09:00+14n128682 1.1 1015122
12:00+18ne326599 0.1 10131067
15:00+17ene2270100 0.2 1012718
18:00+16nne117899 0.1 101319
21:00+15wsw118380 0.1 101513
26 september, sun
sun2600:00+13w228924 0.0 101520
03:00+14wnw358197 0.3 1017149
06:00+14nnw81576100 1.1 10201087
09:00+17nnw35560 1.1 10211080
12:00+20nne324415 0.0 10201607
15:00+19nne544877 0.0 10191079
18:00+17nne1154100 0.0 102015
21:00+16ssw355938 0.0 1020132
27 september, mon
mon2700:00+13ssw47700 0.0 1018109
03:00+13ssw34660 0.0 101645
06:00+14sw32500 0.0 101625
09:00+23sse12310 0.0 1016581
12:00+25e53311 0.0 10142085
15:00+23ene433637 0.0 10141497
18:00+17nne577999 0.8 1017241
21:00+17n3580100 1.4 1018202
28 september, tue
tue2800:00+16nw3582100 0.5 1018181
03:00+15nnw2582100 1.0 1018245
06:00+15nw2381100 0.3 101991
09:00+15nw1283100 0.8 1020237
12:00+15nnw2284100 0.5 1020208
15:00+14nw3585100 0.9 1021267
18:00+14w3484100 0.2 1023137
21:00+14w2381100 0.3 102391